Location: Bégole
(43.1574°N, 0.3291°E)
Time: 12:29:07
(UTC+00:00)

Okean O Rocket - Pass Details

Date: 28 January 2023
Orbit: 621 x 643 km, 98.2° (Epoch: 19 March)

Event Time Altitude Azimuth Distance (km) Brightness Sun altitude
Exits shadow 18:48:01 21° 139° (SE) 1,413 3.1 -18.8°
Maximum altitude 18:50:42 51° 72° (ENE) 801 1.7 -19.3°
Drops below altitude 10° 18:54:58 10° 357° (N) 2,027 4.2 -20.1°
Sets 18:57:13 0° 352° (N) 2,944 5.1 -20.5°
